Weather History for KBDL - November, 2013

Change the Weather History Date:

Tuesday, November 5, 2013

  Actual Average Record
Temperature  
Mean Temperature 40 °F 46 °F  
Max Temperature 53 °F 56 °F 76 °F (1994)
Min Temperature 26 °F 36 °F 21 °F (1952)
Degree Days  
Heating Degree Days 25 19  
Month to date heating degree days 97 93  
Since 1 July heating degree days 580 622  
Cooling Degree Days 0 0  
Month to date cooling degree days 0 0  
Year to date cooling degree days 894 756  
Moisture  
Dew Point 28 °F    
Average Humidity 63    
Maximum Humidity 81    
Minimum Humidity 44    
Precipitation  
Precipitation 0.00 in 0.12 in 1.79 in (1985)
Month to date precipitation 0.15 0.63  
Year to date precipitation 43.92 39.15  
Snow  
Snow 0.00 in 0.10 in 0.20 in (1908)
Month to date snowfall 0.0 0.2  
Since 1 July snowfall T 0.2  
Since 1 September snowfall T 0.2  
Snow Depth 0.00 in    
Sea Level Pressure  
Sea Level Pressure 30.62 in    
Wind  
Wind Speed 4 mph (SSW)    
Max Wind Speed 12 mph    
Max Gust Speed 22 mph    
Visibility 10 miles    
Events      
T = Trace of Precipitation, MM = Missing Value Source: NWS Daily Summary

Daily Weather History Graph

Daily Weather History Graph

Search for Another Location

Airport or City:

Trip Planner

Search our weather history database for the weather conditions in past years. The results will help you decide how hot, cold, wet, or windy it might be!

Date:

Astronomy

Nov. 05, 2013 Rise Set
Actual Time 6:28 AM EST 4:39 PM EST
Civil Twilight 5:59 AM EST 5:08 PM EST
Nautical Twilight 5:25 AM EST 5:42 PM EST
Astronomical Twilight 4:53 AM EST 6:14 PM EST
Moon 8:41 AM EST (11/5) 6:36 PM EST (11/5)
Length of Visible Light 11h 09m
Length of Day
10h 11m
Waxing Crescent, 6% of the Moon is Illuminated
Nov 5
Waxing Crescent
Nov 10
First Quarter
Nov 17
Full
Nov 25
Last Quarter
Dec 2
New

Hourly Weather History & Observations

Time (EST) Temp. Windchill Dew Point Humidity Pressure Visibility Wind Dir Wind Speed Gust Speed Precip Events Conditions
12:51 AM 28.0 °F - 21.0 °F 75% 30.70 in 10.0 mi Calm Calm - N/A   Overcast
1:51 AM 27.0 °F - 21.0 °F 78% 30.70 in 10.0 mi Calm Calm - N/A   Clear
2:51 AM 28.0 °F 24.2 °F 21.0 °F 75% 30.69 in 10.0 mi NNE 3.5 mph - N/A   Mostly Cloudy
3:51 AM 27.0 °F 23.0 °F 21.9 °F 81% 30.68 in 10.0 mi NNW 3.5 mph - N/A   Mostly Cloudy
4:51 AM 28.9 °F - 21.0 °F 72% 30.69 in 10.0 mi Calm Calm - N/A   Mostly Cloudy
5:51 AM 28.0 °F - 19.9 °F 72% 30.68 in 10.0 mi Calm Calm - N/A   Partly Cloudy
6:51 AM 26.1 °F - 19.0 °F 75% 30.69 in 10.0 mi Calm Calm - N/A   Scattered Clouds
7:51 AM 30.9 °F 27.5 °F 21.9 °F 69% 30.70 in 10.0 mi NE 3.5 mph - N/A   Mostly Cloudy
8:51 AM 35.1 °F 32.2 °F 21.9 °F 59% 30.70 in 10.0 mi North 3.5 mph - N/A   Scattered Clouds
9:51 AM 39.9 °F - 24.1 °F 53% 30.69 in 10.0 mi Calm Calm - N/A   Scattered Clouds
10:51 AM 43.0 °F - 25.0 °F 49% 30.67 in 10.0 mi Calm Calm - N/A   Scattered Clouds
11:51 AM 46.9 °F - 28.0 °F 48% 30.64 in 10.0 mi SSE 3.5 mph - N/A   Scattered Clouds
12:51 PM 48.9 °F - 28.9 °F 46% 30.61 in 10.0 mi South 9.2 mph - N/A   Scattered Clouds
1:51 PM 51.1 °F - 30.9 °F 46% 30.59 in 10.0 mi WSW 5.8 mph - N/A   Scattered Clouds
2:51 PM 52.0 °F - 30.9 °F 45% 30.57 in 10.0 mi WSW 10.4 mph - N/A   Mostly Cloudy
3:51 PM 51.1 °F - 33.1 °F 50% 30.56 in 10.0 mi SSW 10.4 mph - N/A   Mostly Cloudy
4:51 PM 48.0 °F - 34.0 °F 58% 30.55 in 10.0 mi South 5.8 mph - N/A   Mostly Cloudy
5:51 PM 46.9 °F - 34.0 °F 61% 30.56 in 10.0 mi South 9.2 mph - N/A   Mostly Cloudy
6:51 PM 46.0 °F 41.9 °F 34.0 °F 63% 30.55 in 10.0 mi South 8.1 mph - N/A   Mostly Cloudy
7:51 PM 45.0 °F 42.6 °F 35.1 °F 68% 30.55 in 10.0 mi South 4.6 mph - N/A   Overcast
8:51 PM 45.0 °F 41.2 °F 36.0 °F 71% 30.55 in 10.0 mi South 6.9 mph - N/A   Overcast
9:51 PM 44.1 °F 42.5 °F 36.0 °F 73% 30.54 in 10.0 mi SSW 3.5 mph - N/A   Mostly Cloudy
10:51 PM 44.1 °F 41.5 °F 36.0 °F 73% 30.52 in 10.0 mi South 4.6 mph - N/A   Overcast
11:51 PM 43.0 °F 41.3 °F 36.0 °F 76% 30.51 in 10.0 mi South 3.5 mph - N/A   Overcast